1379376030061,1.60569
1379376090061,1.60171
1379376150061,1.60156
1379376210061,1.63676
1379376270061,1.61437
1379376330061,1.61920
1379376390061,1.60458
1379376450061,1.60735
1379376510061,1.61912
1379376570061,1.59552
1379376630061,1.61037
1379376690061,1.60505
1379376750061,1.59415
1379376810061,1.60690
1379376870061,1.60412
1379376930061,1.62711
1379376990061,1.61584
1379377050061,1.62308
1379377110061,1.61864
1379377170061,1.61115
1379377230061,1.59834
1379377290061,1.58818
1379377350061,1.62460
1379377410061,1.59164
1379377470061,1.61280
1379377530061,1.61452
1379377590061,1.60019
1379377650061,1.62199
1379377710061,1.62187
1379377770061,1.62706
1379377830061,1.60140
1379377890061,1.63023
1379377950061,1.59606
1379378010061,1.62813
1379378070061,1.59335
1379378130061,1.58536
1379378190061,1.61086
1379378250061,1.61177
1379378310061,1.60839
1379378370061,1.61707
1379378430061,1.61522
1379378490061,1.61658
1379378550061,1.60690
1379378610061,1.61114
1379378670061,1.61328
1379378730061,1.60619
1379378790061,1.59500
1379378850061,1.61100
1379378910061,1.58792
1379378970061,1.63744
1379379030061,1.61298
1379379090061,1.61187
1379379150061,1.57604
1379379210061,1.60601
1379379270061,1.60902
1379379330061,1.57364
1379379390061,1.61847
1379379450061,1.59398
1379379510061,1.59588
1379379570061,1.60515
1379379630072,1.61241
1379379690072,1.61860
1379379750072,1.58269
1379379810072,1.63617
1379379870072,1.60716
1379379930072,1.59026
1379379990072,1.60674
1379380050072,1.61422
1379380110072,1.59671
1379380170072,1.61222
1379380230072,1.61562
1379380290072,1.61836
1379380350072,1.60872
1379380410072,1.61015
1379380470072,1.59979
1379380530072,1.61748
1379380590072,1.62214
1379380650072,1.61604
1379380710072,1.62712
1379380770072,1.62610
1379380830072,1.61255
1379380890072,1.57659
1379380950072,1.58090
1379381010072,1.61338
1379381070072,1.60272
1379381130072,1.60974
1379381190072,1.61847
1379381250072,1.60761
1379381310072,1.60917
1379381370072,1.57691
1379381430072,1.60545
1379381490072,1.59306
1379381550072,1.60164
1379381610072,1.59274
1379381670072,1.61255
1379381730072,1.60678
1379381790072,1.61749
1379381850072,1.61718
1379381910072,1.61504
1379381970072,1.59485
1379382030072,1.64086
1379382090072,1.63125
1379382150072,1.59930
1379382210072,1.61569
1379382270072,1.61644
1379382330072,1.58664
1379382390072,1.57477
1379382450072,1.61585
1379382510072,1.59058
1379382570072,1.60259
1379382630072,1.61416
1379382690072,1.59935
1379382750072,1.62996
1379382810072,1.61388
1379382870072,1.60520
1379382930072,1.63625
1379382990072,1.57978
1379383050072,1.59152
1379383110072,1.60966
1379383170072,1.61210
1379383230082,1.60513
1379383290082,1.58857
1379383350082,1.59334
1379383410082,1.59257
1379383470082,1.61368
1379383530082,1.62515
1379383590082,1.58922
1379383650082,1.61879
1379383710082,1.59888
1379383770082,1.61375
1379383830082,1.60769
1379383890082,1.58884
1379383950082,1.60896
1379384010082,1.59357
1379384070082,1.58866
1379384130082,1.61583
1379384190082,1.58789
1379384250082,1.59976
1379384310082,1.62855
1379384370082,1.62110
1379384430082,1.62896
1379384490082,1.63345
1379384550082,1.64212
1379384610082,1.62375
1379384670082,1.60775
1379384730082,1.61704
1379384790082,1.61557
1379384850082,1.62722
1379384910082,1.61889
1379384970082,1.61823
1379385030082,1.62498
1379385090082,1.59937
1379385150082,1.62944
1379385210082,1.60471
1379385270082,1.59561
1379385330082,1.61280
1379385390082,1.61602
1379385450082,1.62687
1379385510082,1.59358
1379385570082,1.61025
1379385630082,1.61069
1379385690082,1.62717
1379385750082,1.64984
1379385810082,1.61594
1379385870082,1.62414
1379385930082,1.65572
1379385990082,1.60321
1379386050082,1.63936
1379386110082,1.60496
1379386170082,1.61749
1379386230082,1.66522
1379386290082,1.61674
1379386350082,1.60155
1379386410082,1.64191
1379386470082,1.60143
1379386530082,1.62507
1379386590082,1.60187
1379386650082,1.60812
1379386710082,1.63980
1379386770082,1.58150
1379386830092,1.61069
1379386890092,1.61135
1379386950092,1.63030
1379387010092,1.60779
1379387070092,1.61204
1379387130092,1.62366
1379387190092,1.61475
1379387250092,1.63396
1379387310092,1.61302
1379387370092,1.63431
1379387430092,1.61622
1379387490092,1.56547
1379388030092,1.60963
1379388090092,1.58990
1379388150092,1.62886
1379388210092,1.63347
1379388270092,1.62991
1379388330092,1.60818
1379388390092,1.62839
1379388450092,1.60603
1379388510092,1.61330
1379388570092,1.59115
1379388630092,1.62833
1379388690092,1.62303
1379388750092,1.63620
1379388810092,1.60703
1379388870092,1.62035
1379388930092,1.63810
1379388990092,1.64129
1379389050092,1.68856
1379389110092,1.61782
1379389170092,1.62154
1379389230092,1.62805
1379389290092,1.59446
1379389350092,1.62611
1379389410092,1.59197
1379389470092,1.59514
1379389530092,1.63861
1379389590092,1.60235
1379389650092,1.61636
1379389710092,1.60435
1379389770092,1.61747
1379389830092,1.61897
1379389890092,1.63648
1379389950092,1.62807
1379390010092,1.59970
1379390070092,1.62124
1379390130092,1.62806
1379390190092,1.61940
1379390250092,1.63534
1379390310092,1.62602
1379390370092,1.60102
1379390430103,1.61278
1379390490103,1.61783
1379390550103,1.59377
1379390610103,1.60357
1379390670103,1.61322
1379390730103,1.63112
1379390790103,1.59343
1379390850102,1.62797
1379390910102,1.59389
1379390970102,1.60743
1379391030102,1.63223
1379391090102,1.59267
1379391150102,1.62404
1379391210102,1.59923
1379391270102,1.63235
1379391330102,1.62422
1379391390102,1.61019
1379391450103,1.60447
1379391510102,1.60787
1379391570102,1.61085
1379391630102,1.62575
1379391690102,1.58821
1379391750102,1.60736
1379391810103,1.60392
1379391870103,1.61992
1379391930103,1.61465
1379391990103,1.62100
1379392050103,1.62713
1379392110103,1.66798
1379392170102,1.60458
1379392230102,1.62112
1379392290102,1.62953
1379392350102,1.63330
1379392410102,1.63560
1379392470102,1.62552
1379392530102,1.61605
1379392590102,1.61272
1379392650102,1.60834
1379392710102,1.63618
1379392770102,1.61877
1379392830102,1.62244
1379392890102,1.61767
1379392950102,1.59657
1379393010102,1.62242
1379393070102,1.60366
1379393130103,1.61213
1379393190103,1.62496
1379393250103,1.63145
1379393310103,1.61794
1379393370103,1.60700
1379393430103,1.61275
1379393490103,1.60602
1379393550102,1.61934
1379393610102,1.61792
1379393670102,1.62552
1379393730102,1.60021
1379393790102,1.59907
1379393850102,1.60556
1379393910102,1.62150
1379393970102,1.58476
1379394030113,1.62055
1379394090113,1.64185
1379394150113,1.61031
1379394210113,1.62009
1379394270113,1.60240
1379394330113,1.61061
1379394390113,1.61804
1379394450113,1.61862
1379394510113,1.61605
1379394570113,1.59022
1379394630113,1.62613
1379394690113,1.61466
1379394750113,1.59119
1379394810113,1.61257
1379394870113,1.60670
1379394930113,1.62704
1379394990113,1.63367
1379395050113,1.61067
1379395110113,1.63270
1379395170113,1.59172
1379395230113,1.60919
1379395290113,1.61799
1379395350113,1.62212
1379395410113,1.60540
1379395470113,1.60657
1379395530113,1.63988
1379395590113,1.59687
1379395650113,1.61209
1379395710113,1.60615
1379395770113,1.60166
1379395830113,1.60776
1379395890113,1.59727
1379395950113,1.60781
1379396010113,1.61804
1379396070113,1.61776
1379396130113,1.61221
1379396190113,1.62791
1379396250113,1.64370
1379396310113,1.60314
1379396370113,1.61710
1379396430113,1.62342
1379396490113,1.61473
1379396550113,1.61610
1379396610113,1.60855
1379396670113,1.62399
1379396730113,1.62386
1379396790113,1.63930
1379396850113,1.62827
1379396910113,1.62382
1379396970113,1.63446
1379397030113,1.61312
1379397090113,1.63604
1379397150113,1.61723
1379397210113,1.59682
1379397270113,1.63291
1379397330113,1.62160
1379397390113,1.60245
1379397450113,1.61932
1379397510113,1.60152
1379397570113,1.62307
1379397630123,1.61206
1379397690123,1.63028
1379397750123,1.62397
1379397810123,1.63291
1379397870123,1.61862
1379397930123,1.63282
1379397990123,1.66334
1379411130151,1.69634
1379411190151,1.63268
1379411250151,1.63061
1379411310151,1.62493
1379411370151,1.63205
1379411430151,1.63367
1379411490151,1.65227
1379411550151,1.64765
1379411610151,1.63480
1379411670151,1.63811
1379411730151,1.62983
1379411790151,1.67092
1379411850151,1.64167
1379411910151,1.65385
1379411970151,1.65966
1379412030162,1.64859
1379412090162,1.65682
1379412150162,1.63269
1379412210162,1.65044
1379412270162,1.67902
1379412330162,1.64296
1379412390162,1.65665
1379412450162,1.65917
1379412510162,1.67344
1379412570162,1.65965
1379412630162,1.63984
1379412690162,1.66641
1379412750162,1.66582
1379412810162,1.64597
1379412870162,1.65627
1379412930162,1.64132
1379412990162,1.67630
1379413050162,1.64528
1379413110162,1.66853
1379413170162,1.69427
1379413230162,1.64770
1379413290162,1.67095
1379413350162,1.66872
1379413410162,1.66670
1379413470162,1.69766
1379413530162,1.68112
1379413590162,1.69816
1379413650162,1.66355
1379413710162,1.66327
1379413770162,1.69436
1379413830162,1.67593
1379413890162,1.65320
1379413950162,1.64269
1379414010162,1.67881
1379414070162,1.67925
1379414130162,1.66576
1379414190162,1.59883
1379414250162,1.68034
1379414310162,1.66795
1379414370162,1.67716
1379414430162,1.67375
1379414490162,1.65545
1379414550162,1.68317
1379414610162,1.68429
1379414670162,1.67050
1379414730162,1.66552
1379414790162,1.67512
1379414850162,1.68695
1379414910162,1.65346
1379414970162,1.67545
1379415030162,1.66442
1379415090162,1.63308
1379415150162,1.67598
1379415210162,1.67043
1379415270162,1.67788
1379415330162,1.68143
1379415390162,1.68779
1379415450162,1.64867
1379415510162,1.66514
1379415570162,1.68582
1379415630172,1.68612
1379415690172,1.66009
1379415750172,1.68630
1379415810172,1.66593
1379415870172,1.70133
1379415930172,1.64279
1379415990172,1.67469
1379416050172,1.66736
1379416110172,1.69027
1379416170172,1.66454
1379416230172,1.68185
1379416290172,1.68920
1379416350172,1.66424
1379416410172,1.67119
1379416470172,1.66997
1379416530172,1.68718
1379416590172,1.66082
1379416650172,1.66795
1379416710172,1.66709
1379416770172,1.67475
1379416830172,1.68036
1379416890172,1.65766
1379416950172,1.67489
1379417010172,1.65663
1379417070172,1.69797
1379417130172,1.68383
1379417190172,1.68348
1379417250172,1.68870
1379417310172,1.64658
1379417370172,1.68051
1379417430172,1.73756
1379417490172,1.65736
1379417550172,1.68504
1379417610172,1.65819
1379417670172,1.67232
1379417730172,1.68070
1379417790172,1.69308
1379417850172,1.69806
1379417910172,1.66883
1379417970172,1.67022
1379418030172,1.70192
1379418090172,1.68068
1379418150172,1.66239
1379418210172,1.66915
1379418270172,1.68124
1379418330172,1.66786
1379418390172,1.65831
1379418450172,1.67758
1379418510172,1.64312
1379418570172,1.66514
1379418630172,1.66696
1379418690172,1.68185
1379418750172,1.69797
1379418810172,1.67998
1379418870172,1.66577
1379418930172,1.66466
1379418990172,1.65382
1379419050172,1.66088
1379419110172,1.69584
1379419170172,1.67741
1379419230184,1.67381
1379419290184,1.69125
1379419350184,1.69391
1379419410184,1.68411
1379419470184,1.66070
1379419530184,1.68565
1379419590184,1.66715
1379419650183,1.67627
1379419710184,1.66588
1379419770184,1.66191
1379419830184,1.67226
1379419890184,1.67634
1379419950184,1.69871
1379420010184,1.68765
1379420070184,1.66989
1379420130184,1.65158
1379420190184,1.70032
1379420250184,1.67354
1379420310184,1.67186
1379420370184,1.70219
1379420430184,1.66341
1379420490184,1.65912
1379420550184,1.68150
1379420610184,1.68556
1379420670184,1.65611
1379420730184,1.70507
1379420790184,1.67028
1379420850184,1.66683
1379420910184,1.66429
1379420970184,1.70600
1379421030183,1.69597
1379421090184,1.64497
1379421150184,1.68388
1379421210184,1.66498
1379421270184,1.66309
1379421330184,1.68892
1379421390184,1.67985
1379421450184,1.68935
1379421510184,1.68862
1379421570184,1.70692
1379421630184,1.70331
1379421690184,1.69015
1379421750184,1.68139
1379421810184,1.68956
1379421870184,1.68562
1379421930184,1.65732
1379421990184,1.57354
1379422050184,1.66218
1379422110184,1.68704
1379422170184,1.66676
1379422230184,1.66141
1379422290184,1.68616
1379422350183,1.69690
1379422410184,1.67620
1379422470184,1.64584
1379422530184,1.67465
1379422590184,1.67307
1379422650184,1.67050
1379422710184,1.70104
1379422770184,1.68697
1379422830195,1.68469
1379422890195,1.69183
1379422950195,1.68025
1379423010195,1.71457
1379423070195,1.66696
1379423130195,1.68465
1379423190195,1.69728
1379423250195,1.67909
1379423310195,1.69185
1379423370195,1.69315
1379423430195,1.68718
1379423490195,1.66787
1379423550195,1.67487
1379423610195,1.68231
1379423670195,1.68340
1379423730195,1.67294
1379423790195,1.65156
1379423850195,1.67557
1379423910195,1.68484
1379423970195,1.69335
1379424030195,1.66149
1379424090195,1.66353
1379424150195,1.68884
1379424210195,1.68690
1379424270195,1.68863
1379424330195,1.69948
1379424390195,1.67759
1379424450195,1.68298
1379424510195,1.71184
1379424570195,1.66867
1379424630195,1.67958
1379424690195,1.67782
1379424750195,1.68110
1379424810195,1.68267
1379424870195,1.68511
1379424930195,1.70222
1379424990195,1.66398
1379425050195,1.69337
1379425110195,1.68886
1379425170195,1.70333
1379425230195,1.69054
1379425290195,1.69662
1379425350195,1.70278
1379425410195,1.68848
1379425470195,1.66462
1379425530195,1.69740
1379425590195,1.68060
1379425650195,1.70921
1379425710195,1.67444
1379425770195,1.68353
1379425830195,1.69218
1379425890195,1.68032
1379425950195,1.69695
1379426010195,1.68235
1379426070195,1.66382
1379426130195,1.67823
1379426190195,1.67831
1379426250195,1.71674
1379426310195,1.69756
1379426370195,1.69172
1379426430207,1.68612
1379426490207,1.70969
1379426550207,1.68981
1379426610207,1.69199
1379426670207,1.69264
1379426730207,1.70783
1379426790207,1.73466
1379426850207,1.68216
1379426910207,1.71951
1379426970207,1.70094
1379427030207,1.68311
1379427090207,1.69078
1379427150207,1.70752
1379427210207,1.69467
1379427270207,1.69118
1379427330207,1.70521
1379427390207,1.68512
1379427450207,1.72499
1379427510207,1.70337
1379427570207,1.71173
1379427630207,1.70199
1379427690207,1.69059
1379427750207,1.68978
1379427810207,1.68446
1379427870207,1.69434
1379427930207,1.73327
1379427990207,1.70942
1379428050207,1.70375
1379428110207,1.71159
1379428170207,1.71438
1379428230207,1.71974
1379428290207,1.71370
1379428350207,1.72996
1379428410207,1.68151
1379428470207,1.70045
1379428530207,1.68726
1379428590207,1.75015
1379428650207,1.70974
1379428710207,1.70408
1379428770207,1.72410
1379428830207,1.69695
1379428890207,1.69014
1379428950207,1.72020
1379429010207,1.71506
1379429070207,1.69931
1379429130207,1.71793
1379429190207,1.71284
1379429250207,1.71736
1379429310207,1.71496
1379429370207,1.69860
1379429430207,1.72098
1379429490207,1.69750
1379429550207,1.72185
1379429610207,1.72781
1379429670207,1.74558
1379429730207,1.69849
1379429790207,1.69650
1379429850207,1.70823
1379429910207,1.72532
1379429970207,1.71543
1379430030219,1.73960
1379430090219,1.80301
1379430150219,1.72775
1379430210219,1.71118
1379430270219,1.71419
1379430330219,1.68997
1379430390219,1.72867
1379430450219,1.81868
1379430510219,1.72891
1379430570219,1.70301
1379430630219,1.71517
1379430690219,1.75228
1379430750219,1.71547
1379430810219,1.71212
1379430870219,1.71793
1379430930219,1.73453
1379430990219,1.72168
1379431050219,1.72373
1379431110219,1.70599
1379431170219,1.71473
1379431230219,1.75394
1379431290219,1.73106
1379431350219,1.72415
1379431410219,1.73455
1379431470219,1.72101
1379431530219,1.70319
1379431590219,1.69608
1379431650219,1.70864
1379431710219,1.70951
1379431770219,1.71196
1379431830219,1.72049
1379431890219,1.71296
1379431950219,1.70706
1379432010219,1.72361
1379432070219,1.71390
1379432130219,1.72433
1379432190219,1.70304
1379432250219,1.72141
1379432310219,1.72299
1379432370219,1.69266
1379432430219,1.72691
1379432490219,1.72631
1379432550219,1.71927
1379432610219,1.72419
1379432670219,1.73264
1379432730219,1.70698
1379432790219,1.72484
1379432850219,1.74685
1379432910219,1.72814
1379432970219,1.71815
1379433030219,1.73409
1379433090219,1.70482
1379433150219,1.73747
1379433210219,1.71909
1379433270219,1.58671
1379433330219,1.71597
1379433390219,1.69951
1379433450219,1.72741
1379433510219,1.70899
1379433570219,1.74458
1379433630231,1.69833
1379433690231,1.70890
1379433750231,1.71406
1379433810231,1.71130
1379433870231,1.70481
1379433930231,1.70492
1379433990231,1.71327
1379434050231,1.71088
1379434110231,1.72710
1379434170231,1.73361
1379434230231,1.70661
1379434290231,1.69853
1379434350231,1.71636
1379434410231,1.71049
1379434470231,1.72172
1379434530231,1.73206
1379434590231,1.71238
1379434650231,1.71462
1379434710231,1.73310
1379434770231,1.70927
1379434830231,1.74252
1379434890231,1.69476
1379434950231,1.72922
1379435010231,1.71764
1379435070231,1.70076
1379435130231,1.72852
1379435190231,1.70311
1379435250231,1.71484
1379435310231,1.71995
1379435370231,1.72391
1379435430231,1.70565
1379435490231,1.73618
1379435550231,1.73306
1379435610231,1.74234
1379435670231,1.71865
1379435730231,1.72348
1379435790231,1.73573
1379435850231,1.74928
1379435910231,1.71669
1379435970231,1.69501
1379436030231,1.71140
1379436090231,1.68962
1379436150231,1.74850
1379436210231,1.70287
1379436270231,1.70848
1379436330231,1.71620
1379436390231,1.72535
1379436450231,1.70540
1379436510231,1.70147
1379436570231,1.72059
1379436630231,1.70474
1379436690231,1.71416
1379436750231,1.72327
1379436810231,1.69882
1379436870231,1.70363
1379436930231,1.68730
1379436990231,1.71933
1379437050231,1.72528
1379437110231,1.69624
1379437170231,1.69726
1379437230244,1.71067
1379437290244,1.70161
1379437350244,1.69888
1379437410244,1.72072
1379437470244,1.70718
1379437530244,1.72011
1379437590244,1.70426
1379437650244,1.71600
1379437710244,1.69412
1379437770244,1.75430
1379437830244,1.70810
1379437890244,1.70685
1379437950244,1.70151
1379438010244,1.72274
1379438070244,1.73662
1379438130244,1.70773
1379438190244,1.72381
1379438250244,1.72016
1379438310244,1.68841
1379438370244,1.72911
1379438430244,1.69333
1379438490244,1.72140
1379438550244,1.71294
1379438610244,1.70991
1379438670244,1.72578
1379438730244,1.69607
1379438790244,1.69239
1379438850244,1.68010
1379438910244,1.70300
1379438970244,1.68953
1379439030244,1.71062
1379439090244,1.70227
1379439150244,1.69527
1379439210244,1.72092
1379439270244,1.70770
1379439330244,1.72565
1379439390244,1.69541
1379439450244,1.70399
1379439510244,1.71877
1379439570244,1.71027
1379439630244,1.72901
1379439690244,1.71499
1379439750244,1.69827
1379439810244,1.69843
1379439870244,1.70152
1379439930244,1.69632
1379439990244,1.70508
1379440050244,1.72123
1379440110244,1.70283
1379440170244,1.71079
1379440230244,1.69290
1379440290244,1.71342
1379440350244,1.70894
1379440410244,1.69744
1379440470244,1.70894
1379440530244,1.70959
1379440590244,1.71316
1379440650244,1.68384
1379440710244,1.70827
1379440770244,1.70587
1379440830257,1.71060
1379440890257,1.70299
1379440950257,1.69613
1379441010257,1.68665
1379441070257,1.75324
1379441130257,1.70794
1379441190257,1.65734
1379441250257,1.71284
1379441310257,1.70819
1379441370257,1.70768
1379441430257,1.69883
1379441490257,1.69168
1379441550257,1.71217
1379441610257,1.72196
1379441670257,1.69513
1379441730257,1.68753
1379441790257,1.70501
1379441850257,1.72727
1379441910257,1.69115
1379441970257,1.70839
1379442030257,1.71731
1379442090257,1.69729
1379442150257,1.70475
1379442210257,1.69370
1379442270257,1.69969
1379442330257,1.71622
1379442390257,1.68815
1379442450257,1.72973
1379442510257,1.69886
1379442570257,1.70779
1379442630257,1.72083
1379442690257,1.70288
1379442750257,1.71565
1379442810257,1.71088
1379442870257,1.69396
1379442930257,1.71722
1379442990257,1.73750
1379443050257,1.68312
1379443110257,1.70943
1379443170257,1.70475
1379443230257,1.70154
1379443290257,1.70279
1379443350257,1.73343
1379443410257,1.69480
1379443470257,1.68801
1379443530257,1.70653
1379443590257,1.70197
1379443650257,1.72313
1379443710257,1.71047
1379443770257,1.71046
1379443830257,1.69862
1379443890257,1.72384
1379443950257,1.71207
1379444010257,1.69387
1379444070257,1.67108
1379444130257,1.68125
1379444190257,1.69208
1379444250257,1.68609
1379444310257,1.68616
1379444370257,1.69722
1379444430269,1.74427
1379444490269,1.68369
1379444550269,1.69512
1379444610269,1.72596
1379444670269,1.69597
1379444730269,1.69634
1379444790269,1.69562
1379444850269,1.69606
1379444910269,1.70411
1379444970269,1.69081
1379445030269,1.70496
1379445090269,1.70328
1379445150269,1.68444
1379445210269,1.69201
1379445270269,1.72913
1379445330269,1.68033
1379445390269,1.67941
1379445450269,1.72678
1379445510269,1.71447
1379445570269,1.71165
1379445630269,1.70962
1379445690269,1.68768
1379445750269,1.69085
1379445810269,1.67497
1379445870269,1.69949
1379445930269,1.70532
1379445990269,1.70288
1379446050269,1.71632
1379446110269,1.70440
1379446170269,1.70510
1379446230269,1.70738
1379446290269,1.70025
1379446350269,1.71056
1379446410269,1.70415
1379446470269,1.68643
1379446530269,1.69777
1379446590269,1.70599
1379446650269,1.77530
1379446710269,1.69681
1379446770269,1.72072
1379446830269,1.70895
1379446890269,1.70620
1379446950269,1.72413
1379447010269,1.69736
1379447070269,1.70931
1379447130269,1.70938
1379447190269,1.71369
1379447250269,1.70176
1379447310269,1.72542
1379447370269,1.71061
1379447430269,1.70042
1379447490269,1.70183
1379447550269,1.73314
1379447610269,1.71332
1379447670269,1.70279
1379447730269,1.69023
1379447790269,1.72539
1379447850269,1.68457
1379447910269,1.70784
1379447970269,1.69268
1379448030282,1.68421
1379448090282,1.71595
1379448150282,1.69707
1379448210282,1.70241
1379448270282,1.71998
1379448330282,1.71049
1379448390282,1.70637
1379448450282,1.72902
1379448510282,1.69431
1379448570282,1.71749
1379448630282,1.70470
1379448690282,1.69331
1379448750282,1.71698
1379448810282,1.69283
1379448870282,1.76130
1379448930282,1.71100
1379448990282,1.69779
1379449050282,1.70140
1379449110282,1.70517
1379449170282,1.71481
1379449230282,1.69864
1379449290282,1.69861
1379449350282,1.68500
1379449410282,1.70706
1379449470282,1.71095
1379449530282,1.70562
1379449590282,1.70140
1379449650282,1.71562
1379449710282,1.71483
1379449770282,1.69827
1379449830282,1.70888
1379449890282,1.71425
1379449950282,1.69959
1379450010282,1.69363
1379450070282,1.71066
1379450130282,1.70381
1379450190282,1.71968
1379450250282,1.69910
1379450310282,1.74408
1379450370282,1.67737
1379450430282,1.70496
1379450490282,1.68723
1379450550282,1.68936
1379450610282,1.68874
1379450670282,1.68472
1379450730282,1.70746
1379450790282,1.69354
1379450850282,1.69390
1379450910282,1.72147
1379450970282,1.72136
1379451030282,1.69188
1379451090282,1.69599
1379451150282,1.69727
1379451210282,1.71867
1379451270282,1.70445
1379451330282,1.68684
1379451390282,1.69521
1379451450282,1.69243
1379451510282,1.71665
1379451570282,1.69462
1379451630294,1.69704
1379451690294,1.70219
1379451750294,1.72605
1379451810294,1.70904
1379451870294,1.69522
1379451930294,1.69328
1379451990294,1.70718
1379452050294,1.69488
1379452110294,1.69377
1379452170294,1.70007
1379452230294,1.67692
1379452290294,1.70451
1379452350294,1.66833
1379452410294,1.70733
1379452470294,1.70166
1379452530294,1.69176
1379452590294,1.69900
1379452650294,1.70541
1379452710294,1.70330
1379452770294,1.70381
1379452830294,1.69892
1379452890294,1.68876
1379452950294,1.69279
1379453010294,1.68406
1379453070294,1.70439
1379453130294,1.71652
1379453190294,1.68760
1379453250294,1.72402
1379453310294,1.86198
1379453370294,1.71510
1379453430294,1.70925
1379453490294,1.70024
1379453550294,1.69759
1379453610294,1.72099
1379453670294,1.70703
1379453730294,1.70673
1379453790294,1.72892
1379453850294,1.72280
1379453910294,1.70786
1379453970294,1.72522
1379454030294,1.74520
1379454090294,1.73004
1379454150294,1.72845
1379454210294,1.79477
1379454270294,1.73184
1379454330294,1.72551
1379454390294,1.64641
1379454450294,1.71723
1379454510294,1.68604
1379454570294,1.72226
1379454630294,1.72057
1379454690294,1.69273
1379454750294,1.71287
1379454810294,1.67812
1379454870294,1.69312
1379454930294,1.69219